Vertical_Velocity
-4 -16 2 6 1 -0 -2 -2 -1 -0 1 1 2 1 2 3 -3 -2 -3 -1 -3 -3 2 1 0 1 4 4 0 -3 -1 2 -2 4 7 13 -6 1 2 -1 4 0 3 -0
-6 1 3 -0 -1 -4 -1 -1 1 -1 -1 1 -0 3 1 -0 2 2 1 -2 -3 -6 -13 -0 -8 -1 -2 -4 -1 0 -2 0 2 -2 -0 4 14 0 -1 5 1 1 3 2
-6 5 -0 -4 -1 -3 1 -1 0 2 -2 0 -0 4 0 1 -0 1 1 6 1 -0 -3 -11 -4 -9 -2 0 -3 -2 -2 -1 1 2 -0 2 0 5 1 -2 -5 -4 1 5
2 2 -1 -2 -0 1 -1 1 1 0 0 2 3 2 1 -0 -0 -1 -0 -2 -0 1 -1 -0 -5 -1 -6 -4 0 1 0 -2 0 -0 -1 -2 -0 -1 23 -0 6 -3 5 3
6 -1 -2 -3 5 1 2 2 0 -0 -0 1 -2 2 3 -0 -1 -1 -1 -1 -1 -0 0 -2 0 0 -1 -3 -4 0 1 1 -1 1 3 -0 2 0 -3 8 14 -18 9 1
1 1 -1 6 0 1 1 -1 -1 -1 -0 -1 1 4 2 0 1 -1 -1 -1 -0 -2 -2 -1 -0 -2 -0 -2 -2 1 -2 -1 1 -1 1 3 1 -0 0 4 3 10 -2 1
-1 0 -0 -1 -1 -4 -6 -3 -0 1 -2 3 0 0 2 -0 -1 1 1 -1 -2 -3 -2 -0 -3 -5 -3 -3 -2 -5 -1 -2 -4 -1 -0 1 2 2 -0 -3 3 6 6 0
-1 3 -1 -2 1 3 2 1 -1 -0 1 0 -2 1 -1 -3 -0 -1 1 2 2 -2 -3 -4 2 -2 -2 -2 -4 -1 -5 -2 -1 -5 -2 -1 1 2 2 2 -1 3 -1 7
-1 3 1 -1 -0 2 2 -3 3 -2 1 3 0 -3 -3 -0 -3 -1 -2 -3 -1 0 -2 -2 -1 -3 -1 -1 -4 -3 -3 -6 -1 1 -3 -1 -1 1 0 2 2 1 -1 2
1 0 0 1 2 1 -3 1 4 -1 -1 -0 -2 -1 -2 -3 -3 -3 -5 -3 -6 -3 -1 -2 -2 -3 1 2 -0 -4 -2 -2 -6 -2 2 0 -1 -1 -1 -0 0 2 0 -0
-1 -3 3 3 1 -1 2 1 -2 -3 0 -1 0 -1 -3 -1 0 1 -3 -2 2 -3 -2 -0 -1 1 -0 -1 -3 -3 -4 -4 -1 -3 -4 -3 -2 1 0 -2 -0 -1 1 2
1 -2 -0 1 -0 0 -0 -1 -2 -2 1 -0 1 -10 -1 -1 1 2 -2 -3 1 2 -1 2 1 -0 -2 -1 -2 -2 -3 -5 -5 -1 1 0 -0 -5 0 2 -1 -2 -1 1
-3 1 -1 3 4 0 0 0 -0 -0 -0 -3 -1 -7 0 0 -3 0 -0 -2 2 0 -3 -1 2 -2 0 1 -1 -1 -1 -0 -3 -4 -5 -5 -3 -3 -7 -2 0 -0 -4 -1
-2 0 -4 -3 -3 -3 1 1 0 -3 0 -2 -8 -6 -11 -5 -1 -6 -5 0 -1 2 1 -0 -1 -1 -1 -2 -3 -1 -1 -3 -2 -2 -0 -1 -4 -5 -5 -6 -4 1 -2 -4
-2 -1 0 -1 -1 1 -1 -1 0 1 -5 -1 -7 0 -7 -3 -1 -3 -2 0 -2 -2 -2 0 0 0 -1 -1 1 -0 -2 -2 1 0 1 3 3 1 2 2 -3 -10 0 3
1 1 -0 -2 -1 1 1 -1 0 -0 -1 3 3 -10 0 -7 -1 -2 -2 0 -2 -1 0 -2 -1 -1 0 -0 0 1 1 1 -2 -1 -1 2 3 -0 -3 2 2 -2 -5 -1
-2 -1 -0 -2 0 -0 2 -9 -3 -3 0 -7 0 -20 -1 -3 -1 -2 -4 1 -1 -1 -2 -1 -1 -0 1 1 -0 -0 -1 0 2 -2 -1 -4 -2 -1 2 3 1 -3 -4 -2
-1 -1 -0 -1 0 -1 -5 -0 -1 -1 -3 0 2 -1 -2 -4 -2 -5 3 -2 -2 -0 -2 -2 -1 -2 1 0 -0 -1 -2 -2 1 0 -0 -1 -3 -3 -2 -0 1 -0 -2 -3
-1 -2 -0 1 -0 -7 -3 1 -2 -3 -13 -5 -2 -3 -3 5 -1 -18 6 -0 -2 -1 -1 -3 -2 -1 -2 -1 -2 -0 0 -1 -2 0 -0 0 -3 -3 -0 -4 0 2 0 -1
2 0 1 1 1 -1 -3 1 1 0 -8 -0 2 -2 -2 2 4 -13 1 -1 2 -0 -4 -5 -2 -1 -0 1 -1 -3 -2 -1 -1 0 -2 0 0 -1 0 -1 1 -1 -2 -2
1 1 -2 0 -0 -8 -5 -2 -2 7 -12 -1 1 0 2 -1 -9 -1 1 0 -1 1 -1 -2 -1 1 -1 -1 -2 -2 -2 -0 -2 -0 0 -0 0 -1 1 -2 0 -1 2 -3
-6 -3 -1 2 2 -9 2 3 5 -4 -0 -1 1 -0 -2 2 -1 -2 -2 -1 1 2 1 -1 -1 -2 -4 -2 -2 -3 -1 -1 0 -0 -1 0 -1 -2 -1 -2 -3 -2 -3 -3
1 -6 -7 -11 -14 -3 -0 -0 1 4 2 -0 2 -1 4 1 -2 1 -4 1 -1 1 1 -1 -0 -0 -1 -1 -1 -2 -1 -1 0 -1 -1 -1 -2 -3 -2 -3 -3 -4 -2 -3
1 -0 1 2 -6 -7 3 -3 -1 -0 3 -3 1 -1 1 -1 -1 -2 -1 -1 -1 1 -1 -1 1 1 -0 -2 -2 -2 -3 -2 -2 -0 -1 -1 -0 -0 -2 -3 -3 -1 1 -2
-2 3 -1 -6 -7 -4 -1 1 1 -5 3 -2 -5 2 -3 4 -4 1 -5 -2 -0 1 -1 0 0 -0 -1 -1 -2 -2 -2 -2 -1 -2 -2 -2 -1 -1 -1 2 -2 -3 1 1
-4 -4 -0 -4 -2 8 -9 -8 5 -4 -1 3 4 -7 -1 7 -2 3 -4 2 -0 3 -0 0 -1 -1 -0 -1 -1 -2 -3 -1 -1 -3 -2 -3 -4 -1 -1 -4 -6 5 -1 -2
Height
1581 1583 1594 1598 1597 1599 1602 1604 1604 1604 1605 1602 1602 1603 1605 1606 1603 1603 1602 1599 1596 1592 1590 1584 1579 1575 1570 1567 1564 1561 1557 1555 1554 1553 1553 1555 1553 1555 1557 1557 1562 1566 1570 1573
1586 1593 1602 1602 1603 1603 1604 1605 1607 1605 1605 1602 1603 1605 1606 1606 1606 1605 1603 1600 1598 1594 1587 1584 1579 1574 1570 1566 1562 1559 1557 1554 1552 1551 1550 1549 1550 1549 1551 1552 1555 1558 1561 1565
1589 1607 1603 1602 1604 1603 1607 1608 1611 1610 1604 1604 1603 1604 1605 1607 1606 1604 1602 1601 1599 1596 1592 1586 1579 1576 1570 1565 1562 1559 1555 1553 1551 1548 1547 1546 1546 1546 1545 1546 1545 1548 1553 1557
1603 1609 1606 1606 1606 1607 1603 1610 1611 1609 1605 1600 1605 1597 1604 1606 1605 1603 1602 1600 1598 1596 1593 1590 1583 1576 1571 1567 1564 1560 1556 1552 1548 1546 1543 1542 1541 1540 1541 1541 1541 1543 1544 1547
1614 1611 1610 1607 1612 1610 1609 1611 1610 1608 1605 1604 1605 1602 1599 1605 1603 1604 1603 1601 1599 1597 1595 1590 1583 1578 1573 1570 1565 1561 1556 1552 1548 1544 1542 1539 1538 1536 1536 1535 1534 1534 1530 1540
1611 1613 1614 1614 1613 1612 1611 1608 1608 1609 1606 1602 1611 1607 1600 1603 1606 1606 1605 1602 1600 1597 1594 1590 1584 1579 1576 1572 1567 1562 1556 1551 1547 1544 1540 1536 1533 1531 1531 1532 1530 1528 1528 1527
1613 1615 1616 1615 1614 1612 1610 1608 1607 1602 1604 1605 1613 1608 1604 1606 1606 1605 1604 1602 1600 1597 1593 1590 1585 1581 1577 1572 1567 1562 1557 1552 1547 1542 1539 1535 1531 1529 1527 1526 1525 1524 1523 1526
1612 1613 1618 1618 1619 1620 1617 1617 1616 1602 1610 1613 1613 1607 1604 1606 1605 1605 1603 1602 1599 1595 1593 1590 1586 1582 1579 1573 1569 1563 1558 1552 1548 1543 1538 1534 1530 1527 1524 1523 1521 1517 1519 1522
1617 1621 1623 1622 1621 1622 1619 1621 1627 1626 1630 1628 1614 1611 1608 1605 1604 1603 1601 1599 1596 1594 1590 1588 1585 1582 1580 1574 1569 1565 1559 1554 1549 1544 1539 1534 1529 1525 1521 1518 1515 1512 1512 1514
1617 1620 1623 1624 1623 1623 1620 1627 1624 1634 1628 1626 1616 1616 1606 1603 1603 1602 1600 1597 1594 1591 1587 1585 1583 1582 1579 1573 1569 1565 1561 1555 1550 1545 1540 1533 1528 1524 1520 1516 1512 1509 1507 1508
1616 1620 1624 1623 1623 1622 1624 1625 1633 1634 1636 1626 1624 1602 1606 1604 1605 1603 1599 1596 1592 1588 1585 1582 1580 1579 1576 1573 1569 1564 1560 1555 1549 1544 1540 1534 1527 1522 1517 1514 1510 1506 1503 1502
1617 1623 1620 1623 1625 1625 1624 1624 1627 1627 1637 1635 1629 1609 1603 1604 1604 1601 1597 1594 1590 1587 1584 1580 1578 1576 1574 1572 1568 1564 1559 1554 1549 1543 1538 1533 1527 1522 1516 1511 1506 1503 1500 1497
1614 1621 1622 1618 1626 1626 1625 1630 1637 1638 1634 1627 1629 1601 1599 1600 1600 1597 1594 1591 1589 1586 1583 1579 1577 1574 1572 1569 1566 1562 1558 1553 1547 1542 1537 1531 1525 1520 1516 1511 1505 1500 1497 1495
1610 1618 1617 1606 1612 1622 1628 1632 1635 1628 1629 1622 1612 1599 1594 1595 1596 1593 1591 1589 1586 1583 1581 1578 1576 1573 1570 1568 1565 1561 1556 1551 1546 1541 1535 1530 1525 1520 1515 1509 1505 1498 1493 1491
1611 1616 1621 1620 1617 1617 1611 1617 1622 1625 1616 1612 1596 1599 1594 1594 1593 1591 1588 1585 1582 1580 1578 1575 1573 1570 1568 1565 1563 1559 1554 1549 1543 1538 1533 1527 1522 1517 1511 1506 1502 1498 1493 1487
1612 1614 1618 1617 1610 1612 1608 1603 1606 1607 1603 1605 1601 1596 1591 1589 1589 1587 1584 1582 1579 1577 1574 1572 1570 1567 1564 1562 1559 1555 1550 1545 1540 1535 1530 1524 1519 1513 1509 1503 1498 1494 1491 1486
1611 1614 1617 1611 1612 1609 1602 1588 1589 1590 1590 1593 1597 1585 1583 1583 1583 1582 1580 1578 1576 1573 1571 1569 1566 1563 1560 1557 1555 1551 1546 1542 1537 1532 1526 1521 1515 1511 1506 1501 1497 1492 1488 1484
1608 1611 1616 1611 1611 1608 1578 1583 1582 1581 1582 1586 1582 1579 1578 1578 1578 1577 1575 1574 1571 1570 1568 1565 1563 1559 1557 1554 1552 1548 1544 1539 1534 1530 1524 1519 1514 1509 1504 1498 1494 1490 1485 1481
1602 1606 1611 1610 1609 1590 1569 1577 1580 1580 1570 1573 1575 1574 1574 1575 1574 1571 1570 1569 1567 1566 1563 1561 1558 1556 1554 1551 1548 1544 1540 1536 1532 1527 1522 1516 1511 1506 1501 1496 1491 1486 1481 1477
1605 1605 1605 1618 1610 1595 1572 1576 1576 1577 1571 1567 1568 1569 1570 1572 1570 1566 1565 1564 1563 1561 1559 1557 1555 1552 1550 1547 1544 1540 1536 1532 1528 1523 1518 1513 1508 1503 1498 1493 1488 1483 1478 1474
1604 1607 1604 1614 1606 1589 1572 1574 1576 1578 1572 1567 1567 1568 1568 1569 1565 1563 1561 1560 1558 1556 1554 1552 1550 1548 1545 1543 1540 1536 1532 1528 1523 1519 1514 1510 1505 1500 1495 1489 1484 1479 1473 1469
1591 1597 1604 1611 1612 1595 1569 1574 1574 1566 1565 1566 1566 1565 1564 1562 1559 1557 1556 1554 1553 1551 1550 1547 1545 1544 1541 1539 1535 1532 1528 1523 1519 1514 1510 1506 1501 1496 1491 1486 1481 1475 1470 1465
1583 1580 1584 1588 1579 1570 1568 1566 1566 1565 1563 1563 1562 1560 1558 1555 1553 1551 1549 1548 1546 1545 1544 1542 1540 1538 1536 1533 1530 1526 1523 1519 1514 1510 1505 1501 1496 1491 1487 1481 1476 1472 1467 1461
1577 1578 1578 1579 1567 1567 1565 1564 1563 1562 1559 1557 1556 1553 1551 1548 1546 1544 1542 1540 1539 1538 1537 1536 1534 1532 1530 1528 1525 1522 1518 1515 1510 1506 1501 1496 1491 1486 1482 1478 1474 1469 1464 1459
1575 1577 1572 1568 1566 1564 1560 1559 1558 1556 1553 1549 1547 1545 1542 1540 1537 1536 1533 1532 1530 1530 1530 1530 1528 1526 1524 1522 1520 1517 1514 1510 1505 1501 1497 1492 1487 1482 1476 1473 1469 1464 1460 1456
1571 1568 1568 1564 1563 1563 1558 1555 1552 1549 1543 1541 1539 1534 1532 1531 1528 1526 1524 1523 1522 1524 1524 1523 1522 1520 1519 1517 1514 1512 1508 1504 1500 1495 1491 1487 1482 1477 1472 1467 1460 1458 1454 1450